Regional Weather Roundup
Issued by NWS State College, PA

Home | Current Version | Previous Version | Text Only | Print | Product List | Glossary On
Versions: 1 2 3 4 5 6 7 8 9 10 11 12 13 14 15 16 17 18 19 20 21 22 23 24 25 26 27 28 29 30 31 32 33 34 35 36 37 38 39 40 41 42 43 44 45 46 47 48 49 50
000
ASUS41 KCTP 251310
RWRCTP

REGIONAL WEATHER ROUNDUP
NATIONAL WEATHER SERVICE STATE COLLEGE PA
900 AM EDT FRI JUL 25 2014

Note: "fair" indicates few or no clouds below 12,000 feet with no
significant weather and/or obstructions to visibility.

* = STATION THAT DOES NOT REPORT PRECIPITATION /E.G. RAIN...SNOW...ETC/
    THUNDER OR FOG.

PAZ002>004-007>009-013>016-020>023-029>032-251400-
WESTERN PENNSYLVANIA

CITY           SKY/WX    TMP DP  RH WIND       PRES   REMARKS
ERIE           SUNNY     65  51  60 S7        30.09F
MEADVILLE      SUNNY     61  48  62 S5        30.12S
FRANKLIN*      SUNNY     61  48  63 CALM      30.14S
NEW CASTLE       N/A     58  56  93 CALM      30.13S
BEAVER COUNTY  SUNNY     61  50  67 N3        30.12S
BUTLER*        SUNNY     59  50  72 NE3       30.14S
PITTSBURGH INT MOSUNNY   61  52  72 CALM      30.12S
PITTSBURGH     SUNNY     62  53  72 CALM      30.11S
INDIANA*       SUNNY     63  54  72 CALM      30.16S
LATROBE        SUNNY     61  57  88 CALM      30.13R
WASHINGTON CO* SUNNY     61  52  72 CALM      30.13S
$$

PAZ004>006-010>012-017>019-024>028-033>037-041-042-045-046-049>053-251400-
CENTRAL PENNSYLVANIA

CITY           SKY/WX    TMP DP  RH WIND       PRES   REMARKS
BRADFORD       SUNNY     60  48  64 VRB3      30.14R
DUBOIS         SUNNY     62  48  60 CALM      30.12S
CLEARFIELD     MOSUNNY   53  52  96 CALM      30.14R
JOHNSTOWN      SUNNY     59  52  77 CALM      30.14R
ALTOONA        SUNNY     63  54  72 CALM      30.13R
STATE COLLEGE  SUNNY     59  52  77 CALM      30.12R
WILLIAMSPORT   SUNNY     60  50  69 W10       30.10R
SELINSGROVE    SUNNY     63  52  67 CALM      30.10S
FT INDIANTOWN  SUNNY     67  51  55 VRB3      30.08R
CAPITAL CITY   SUNNY     66  50  56 NW8       30.09R
HARRISBURG     SUNNY     67  51  56 W8        30.08R
YORK           SUNNY     65  52  62 NW8       30.09R
$$

PAZ038>040-043-044-047-048-054-055-060>062-067>071-251400-
EASTERN PENNSYLVANIA

CITY           SKY/WX    TMP DP  RH WIND       PRES   REMARKS
SCRANTON       SUNNY     60  50  69 CALM      30.09R
MOUNT POCONO   SUNNY     64  48  56 N8        30.09R
ALLENTOWN      SUNNY     66  50  56 CALM      30.06R
QUAKERTOWN*    SUNNY     66  54  63 N6        30.07R
READING        SUNNY     66  52  60 N6        30.06R
LANCASTER      SUNNY     66  52  60 N5        30.07R
COATESVILLE    SUNNY     64  54  68 N3        30.07S
POTTSTOWN      SUNNY     66  53  63 NW5       30.07R
BLUE BELL      SUNNY     68  55  64 CALM      30.05R
DOYLESTOWN     MOSUNNY   67  55  65 N6        30.05R
WILLOW GROVE   NOT AVBL
NORTH PHILA    MOSUNNY   70  53  54 N7        30.05S
PHILADELPHIA   MOSUNNY   71  53  52 N8        30.04R
$$



USA.gov is the U.S. government's official web portal to all federal, state and local government web resources and services.